Regional Weather Roundup
Issued by NWS

Home | Current Version | Previous Version | Text Only | Print | Product List | Glossary On
Versions: 1 2 3 4 5 6 7 8 9 10 11 12 13 14 15 16 17 18 19 20 21 22 23 24 25 26 27 28 29 30 31 32 33 34 35 36 37 38 39 40 41 42 43 44 45 46 47 48 49 50
000
ASUS43 KDTX 261801
RWRMI
MICHIGAN HOURLY REGIONAL WEATHER ROUNDUP
NATIONAL WEATHER SERVICE DETROIT/PONTIAC MI
200 PM EDT FRI AUG 26 2016

NOTE: "FAIR" INDICATES FEW OR NO CLOUDS BELOW 12,000 FEET WITH NO
SIGNIFICANT WEATHER AND/OR OBSTRUCTION TO VISIBILITY.

MIZ047>049-052>055-059>063-066>070-074>076-081>083-261900-
SOUTHEAST LOWER MICHIGAN

CITY           SKY/WX    TMP DP  RH WIND       PRES   REMARKS
ADRIAN         SUNNY     81  62  52 VRB3      30.15F
6HR MIN TEMP:  62; 6HR MAX TEMP:  81;

ALMA           SUNNY     79  62  56 SW9       30.14F
ANN ARBOR      SUNNY     82  63  52 VRB6      30.15F
BAD AXE        SUNNY     77  58  52 W8        30.13F
CARO           SUNNY     78  64  62 W8        30.13S
DETROIT CITY   SUNNY     83  61  47 W8        30.13F
6HR MIN TEMP:  67; 6HR MAX TEMP:  83;

DETROIT        PTSUNNY   83  62  49 W7        30.14F
6HR MIN TEMP:  67; 6HR MAX TEMP:  83;

FLINT          MOSUNNY   82  61  48 W8        30.15S
6HR MIN TEMP:  65; 6HR MAX TEMP:  82;

GROSSE ILE     SUNNY     79  66  64 S8        30.13F
6HR MIN TEMP:  67; 6HR MAX TEMP:  81;

HILLSDALE      SUNNY     81  64  55 W5        30.17F
6HR MIN TEMP:  51; 6HR MAX TEMP:  84;

HOWELL         SUNNY     80  61  53 SW6       30.15F

CITY           SKY/WX    TMP DP  RH WIND       PRES   REMARKS
JACKSON        SUNNY     78  62  57 VRB3      30.16F
6HR MIN TEMP:  63; 6HR MAX TEMP:  79;

LAMBERTVILLE   SUNNY     84  62  46 W5        30.16S
6HR MIN TEMP:  65; 6HR MAX TEMP:  84;

LANSING        SUNNY     80  58  46 W8        30.15F
6HR MIN TEMP:  64; 6HR MAX TEMP:  80;

LAPEER         FAIR      80  60  50 NW8       30.15S
6HR MIN TEMP:  63; 6HR MAX TEMP:  80;

MASON          SUNNY     79  63  57 W6        30.16S
MONROE         SUNNY     83  68  59 W7        30.14S
6HR MIN TEMP:  63; 6HR MAX TEMP:  84;

MT. CLEMENS    MOSUNNY   83  62  47 W9        30.12F
6HR MIN TEMP:  67; 6HR MAX TEMP:  83;

PONTIAC        PTSUNNY   80  63  55 SW9       30.14F
6HR MIN TEMP:  64; 6HR MAX TEMP:  80;

PORT HURON     MOSUNNY   79  64  61 SW5       30.13S
TRI CITIES     SUNNY     78  60  53 SW10      30.14S
6HR MIN TEMP:  62; 6HR MAX TEMP:  79;

MIDLAND        FAIR      78  62  56 SW10      30.12S
6HR MIN TEMP:  60; 6HR MAX TEMP:  79;

TROY           SUNNY     83  57  40 SW3       30.15F
SAGINAW HB     SUNNY     79  61  53 SW9       30.13S
$$
MIZ043>046-050>051-056>058-064>065-071>073-077>080-261900-
SOUTHWEST LOWER MICHIGAN

CITY           SKY/WX    TMP DP  RH WIND       PRES   REMARKS
BATTLE CREEK   SUNNY     76  63  64 W7        30.17F
6HR MIN TEMP:  63; 6HR MAX TEMP:  77;

BENTON HARBOR  MOSUNNY   78  62  57 VRB3      30.15F
6HR MIN TEMP:  64; 6HR MAX TEMP:  79;

BIG RAPIDS     SUNNY     77  55  47 W8        30.14S
6HR MIN TEMP:  59; 6HR MAX TEMP:  78;

COLDWATER      SUNNY     81  61  49 W3        30.16F
6HR MIN TEMP:  62; 6HR MAX TEMP:  82;

FREMONT        FAIR      76  49  38 NW9       30.15S
HOLLAND        SUNNY     76  62  62 W6        30.17F
6HR MIN TEMP:  63; 6HR MAX TEMP:  77;

GRAND RAPIDS   PTSUNNY   80  59  48 W8        30.16F
6HR MIN TEMP:  65; 6HR MAX TEMP:  80;

IONIA          FAIR      79  60  51 W8        30.15S
6HR MIN TEMP:  62; 6HR MAX TEMP:  79;

KALAMAZOO      SUNNY     81  60  48 VRB6      30.16F
6HR MIN TEMP:  65; 6HR MAX TEMP:  81;

LUDINGTON      PTSUNNY   71  58  63 W8        30.15S
6HR MIN TEMP:  59; 6HR MAX TEMP:  71;

MARSHALL       SUNNY     81  64  57 CALM      30.16F
MOUNT PLEASANT SUNNY     80  59  49 W9        30.12F
6HR MIN TEMP:  62; 6HR MAX TEMP:  80;

MUSKEGON       PTSUNNY   73  57  57 W8        30.16F
6HR MIN TEMP:  63; 6HR MAX TEMP:  76;

SOUTH HAVEN    SUNNY     78  63  60 NW3       30.16F
$$
MIZ016>042-261900-
NORTHERN LOWER MICHIGAN

CITY           SKY/WX    TMP DP  RH WIND       PRES   REMARKS
ALPENA         CLOUDY    76  54  46 NW6       30.10F
6HR MIN TEMP:  62; 6HR MAX TEMP:  78;

BEAVER ISLAND  SUNNY     71  60  69 SW9G16    30.12S
6HR MIN TEMP:  64; 6HR MAX TEMP:  71;

BELLAIRE       CLOUDY    74  55  51 W7        30.13R
6HR MIN TEMP:  58; 6HR MAX TEMP:  74;

CADILLAC       MOSUNNY   75  55  49 W10G16    30.14S
CHARLEVOIX     PTSUNNY   71  60  67 W16       30.15S
FRANKFORT      MOSUNNY   71  60  67 W8        30.14F
GAYLORD        PTSUNNY   73  54  51 NW9       30.13F
6HR MIN TEMP:  58; 6HR MAX TEMP:  73;

GRAYLING       PTSUNNY   77  56  48 SW7       30.14S
HARBOR SPRINGS MOSUNNY   71  60  68 W7G16     30.12S
HOUGHTON LAKE  SUNNY     76  56  49 W7        30.14F
6HR MIN TEMP:  62; 6HR MAX TEMP:  76;

MANISTEE       MOSUNNY   71  60  68 SW9       30.15R
OSCODA         PTSUNNY   75  60  60 E8        30.10S
6HR MIN TEMP:  62; 6HR MAX TEMP:  80;

PELLSTON       CLOUDY    73  57  57 W13       30.11S
6HR MIN TEMP:  57; 6HR MAX TEMP:  75;

ROGERS CITY    PTSUNNY   72  62  69 N7        30.11S
TRAVERSE CITY  PTSUNNY   75  54  47 W9        30.11F
6HR MIN TEMP:  62; 6HR MAX TEMP:  76;

$$
MIZ007>008-015-261900-
EASTERN UPPER MICHIGAN

CITY           SKY/WX    TMP DP  RH WIND       PRES   REMARKS
KINROSS        PTSUNNY   68  60  75 NW12      30.09S
6HR MIN TEMP:  58; 6HR MAX TEMP:  74;

MACKINAC ISLAN SUNNY     70  60  71 W12G17    30.10S
6HR MIN TEMP:  64; 6HR MAX TEMP:  70;

NEWBERRY       CLOUDY    70  58  66 NW7       30.10S
6HR MIN TEMP:  58; 6HR MAX TEMP:  70;

S. S. MARIE    CLOUDY    70  61  73 NW10      30.09R
6HR MIN TEMP:  64; 6HR MAX TEMP:  72;

MUNISING         N/A     66  60  81 N9        30.12S
6HR MIN TEMP:  57; 6HR MAX TEMP:  67;

$$
MIZ004>006-011>014-085-261900-
CENTRAL UPPER MICHIGAN

CITY           SKY/WX    TMP DP  RH WIND       PRES   REMARKS
MANISTIQUE     CLOUDY    70  61  73 S6        30.11R
6HR MIN TEMP:  59; 6HR MAX TEMP:  71;

ESCANABA       PTSUNNY   70  58  65 S10       30.11S
6HR MIN TEMP:  56; 6HR MAX TEMP:  71;

MENOMINEE      CLOUDY   N/A N/A N/A VRB5      30.13S
SAWYER-GWINN   CLOUDY    59  57  94 NW9       30.15R FOG
$$
MIZ001>003-009>011-084-261900-
WESTERN UPPER MICHIGAN

CITY           SKY/WX    TMP DP  RH WIND       PRES   REMARKS
IRON MOUNTAIN  CLOUDY    68  52  56 NW7       30.13S
6HR MIN TEMP:  58; 6HR MAX TEMP:  71;

HOUGHTON       PTSUNNY   64  51  62 NW13      30.13S
6HR MIN TEMP:  60; 6HR MAX TEMP:  66;

COPPER HARBOR    N/A     62  56  80 NE8       30.13S
6HR MIN TEMP:  60; 6HR MAX TEMP:  63; 6HR PCP:  0.01;

IRONWOOD       CLOUDY    65  46  50 VRB6      30.17S
6HR MIN TEMP:  56; 6HR MAX TEMP:  66;

$$

ABBREVIATIONS USED IN REMARKS
   TC - TEMPERATURE IN CELSIUS
  WCI - WIND CHILL INDEX
   HX - HEAT INDEX
  VSB - VISIBILITY




USA.gov is the U.S. government's official web portal to all federal, state and local government web resources and services.